EW5087 Weather Reports


Display with metric or nautical units.
time (UTC)temp
F
wind
direction
speed
MPH
gust
MPH
rain 1hr
in
rain 24hr
in
rain mn
in
humidity
%
barometer
mb
20190522222918 50 0 0.0 0.0 0.00 0.00 0.00 81 1019.1
20190522221917 51 0 0.0 0.0 0.00 0.00 0.00 80 1019.1
20190522220918 51 0 0.0 0.0 0.00 0.00 0.00 78 1019.0
20190522215919 51 0 0.0 0.0 0.00 0.00 0.00 78 1019.0
20190522214918 52 0 0.0 0.0 0.00 0.00 0.00 76 1019.2
20190522213917 53 0 0.0 0.0 0.00 0.00 0.00 74 1019.2
20190522212918 53 0 0.0 0.0 0.00 0.00 0.00 71 1019.1
20190522211917 54 0 0.0 0.0 0.00 0.00 0.00 71 1019.0
20190522210918 55 0 0.0 0.0 0.00 0.00 0.00 70 1019.0
20190522205918 55 0 0.0 0.0 0.00 0.00 0.00 68 1018.9
20190522204918 56 0 0.0 0.0 0.00 0.00 0.00 65 1018.9
20190522203918 57 22 0.0 1.0 0.00 0.00 0.00 63 1018.8
20190522202917 57 22 0.0 1.0 0.00 0.00 0.00 61 1018.8
20190522201918 58 22 0.0 1.0 0.00 0.00 0.00 60 1018.7
20190522200918 58 22 0.0 1.0 0.00 0.00 0.00 57 1018.7
20190522195918 58 4 0.0 1.0 0.00 0.00 0.00 56 1018.7
20190522194918 59 5 0.0 2.0 0.00 0.00 0.00 55 1018.7
20190522193918 59 356 0.0 2.0 0.00 0.00 0.00 53 1018.6
20190522192917 60 21 0.0 3.0 0.00 0.00 0.00 52 1018.6
20190522191918 60 355 1.0 3.0 0.00 0.00 0.00 51 1018.5
20190522190918 60 345 0.0 3.0 0.00 0.00 0.00 50 1018.5
20190522185919 61 3 1.0 4.0 0.00 0.00 0.00 50 1018.5
20190522184918 61 22 0.0 2.0 0.00 0.00 0.00 54 1018.5
20190522183918 62 328 0.0 3.0 0.00 0.00 0.00 54 1018.4
20190522182917 62 314 1.0 3.0 0.00 0.00 0.00 53 1018.3
20190522181918 63 310 1.0 5.0 0.00 0.00 0.00 51 1018.3
20190522180918 64 303 1.0 4.0 0.00 0.00 0.00 47 1018.3
20190522175918 64 290 2.0 6.0 0.00 0.00 0.00 45 1018.3
20190522174918 65 311 2.0 7.0 0.00 0.00 0.00 44 1018.2
20190522173918 65 288 2.0 7.0 0.00 0.00 0.00 45 1018.2
20190522172918 66 298 2.0 5.0 0.00 0.00 0.00 47 1018.1
20190522171918 67 292 2.0 7.0 0.00 0.00 0.00 49 1018.1
20190522170917 67 319 1.0 7.0 0.00 0.00 0.00 44 1017.9
20190522165918 67 288 3.0 10.0 0.00 0.00 0.00 41 1018.0
20190522164918 68 313 2.0 8.0 0.00 0.00 0.00 44 1018.1
20190522163918 68 294 3.0 8.0 0.00 0.00 0.00 46 1018.0
20190522162918 68 336 2.0 6.0 0.00 0.00 0.00 46 1018.0
20190522161918 68 295 4.0 11.0 0.00 0.00 0.00 47 1018.0
20190522160918 68 294 3.0 9.0 0.00 0.00 0.00 48 1017.9
20190522155919 69 290 3.0 9.0 0.00 0.00 0.00 49 1018.0
20190522154918 69 286 3.0 8.0 0.00 0.00 0.00 52 1017.9
20190522153918 69 307 2.0 6.0 0.00 0.00 0.00 49 1018.1
20190522152917 69 304 3.0 8.0 0.00 0.00 0.00 49 1018.0
20190522151918 68 300 3.0 9.0 0.00 0.00 0.00 49 1018.1
20190522150918 67 312 2.0 6.0 0.00 0.00 0.00 49 1018.1
20190522145918 68 23 2.0 7.0 0.00 0.00 0.00 48 1018.1
20190522144918 68 298 1.0 8.0 0.00 0.00 0.00 50 1018.1
20190522143918 67 336 1.0 3.0 0.00 0.00 0.00 50 1018.2
20190522142918 67 311 1.0 4.0 0.00 0.00 0.00 51 1018.2
20190522141918 67 330 1.0 4.0 0.00 0.00 0.00 51 1018.2
20190522140918 68 318 2.0 6.0 0.00 0.00 0.00 49 1018.2
20190522135918 69 1 2.0 9.0 0.00 0.00 0.00 48 1018.2
20190522134918 69 264 4.0 9.0 0.00 0.00 0.00 52 1018.1
20190522133918 68 263 3.0 8.0 0.00 0.00 0.00 52 1018.3
20190522132918 68 275 2.0 6.0 0.00 0.00 0.00 55 1018.3
20190522131918 68 273 4.0 10.0 0.00 0.00 0.00 54 1018.3
20190522130918 68 271 3.0 9.0 0.00 0.00 0.00 54 1018.5
20190522125919 68 251 4.0 10.0 0.00 0.00 0.00 57 1018.5
20190522124918 67 270 3.0 9.0 0.00 0.00 0.00 54 1018.5
20190522123918 66 283 3.0 12.0 0.00 0.00 0.00 58 1018.6
20190522122919 67 275 3.0 9.0 0.00 0.00 0.00 58 1018.7
20190522121919 66 278 2.0 6.0 0.00 0.00 0.00 59 1018.7
20190522120919 65 253 3.0 7.0 0.00 0.00 0.00 63 1018.7
20190522115919 64 258 3.0 7.0 0.00 0.00 0.00 63 1018.8
20190522114918 64 246 3.0 7.0 0.00 0.00 0.00 63 1018.8
20190522113918 64 257 2.0 5.0 0.00 0.00 0.00 67 1018.9
20190522112919 63 261 2.0 5.0 0.00 0.00 0.00 64 1018.9
20190522111918 64 255 2.0 6.0 0.00 0.00 0.00 64 1018.9
20190522110918 63 319 2.0 5.0 0.00 0.00 0.00 65 1019.0
20190522105919 63 270 2.0 8.0 0.00 0.00 0.00 65 1019.0
20190522104919 62 304 1.0 5.0 0.00 0.00 0.00 64 1019.0
20190522103918 61 271 2.0 7.0 0.00 0.00 0.00 65 1019.0
20190522102918 61 299 1.0 5.0 0.00 0.00 0.00 65 1019.0
20190522101919 60 294 2.0 5.0 0.00 0.00 0.00 68 1019.0
20190522100919 60 277 2.0 5.0 0.00 0.00 0.00 70 1019.0
20190522095919 59 251 3.0 6.0 0.00 0.00 0.00 71 1019.0
20190522094918 59 259 2.0 6.0 0.00 0.00 0.00 71 1019.0
20190522093918 58 281 2.0 5.0 0.00 0.00 0.00 71 1019.1
20190522092919 58 309 1.0 5.0 0.00 0.00 0.00 73 1019.0
20190522091918 57 293 2.0 6.0 0.00 0.00 0.00 72 1019.1
20190522090918 57 289 1.0 7.0 0.00 0.00 0.00 75 1019.1
20190522085919 56 266 2.0 6.0 0.00 0.00 0.00 75 1019.1
20190522084919 56 275 3.0 7.0 0.00 0.00 0.00 76 1019.1
20190522083918 56 250 1.0 7.0 0.00 0.00 0.00 76 1019.1
20190522082919 55 299 1.0 3.0 0.00 0.00 0.00 75 1019.1
20190522081918 56 268 3.0 7.0 0.00 0.00 0.00 75 1019.1
20190522080919 56 277 2.0 5.0 0.00 0.00 0.00 77 1019.0
20190522075918 55 297 1.0 4.0 0.00 0.00 0.00 77 1018.9
20190522074918 55 307 1.0 5.0 0.00 0.00 0.00 77 1018.9
20190522073918 55 280 2.0 6.0 0.00 0.00 0.00 75 1018.9
20190522072918 57 275 1.0 5.0 0.00 0.00 0.00 74 1019.0
20190522071918 56 20 1.0 6.0 0.00 0.00 0.00 76 1018.8
20190522070918 55 20 1.0 4.0 0.00 0.00 0.00 77 1018.9
20190522065919 54 28 2.0 6.0 0.00 0.00 0.00 79 1018.8
20190522064918 53 335 1.0 4.0 0.00 0.00 0.00 79 1018.7
20190522063919 53 352 1.0 3.0 0.00 0.00 0.00 81 1018.6
20190522062919 52 307 1.0 5.0 0.00 0.00 0.00 81 1018.6
20190522061918 51 289 2.0 5.0 0.00 0.00 0.00 82 1018.6
20190522060919 51 288 2.0 5.0 0.00 0.00 0.00 84 1018.6
20190522055919 51 288 1.0 4.0 0.00 0.00 0.00 84 1018.6
20190522054918 51 297 1.0 3.0 0.00 0.00 0.00 84 1018.6
20190522053919 51 295 2.0 4.0 0.00 0.00 0.00 84 1018.5
20190522052918 51 288 1.0 4.0 0.00 0.00 0.00 84 1018.5
20190522051919 51 300 1.0 4.0 0.00 0.00 0.00 84 1018.5
20190522050919 51 298 1.0 6.0 0.00 0.00 0.00 84 1018.4
20190522045919 50 303 0.0 4.0 0.00 0.00 0.00 84 1018.3
20190522044918 50 329 0.0 4.0 0.00 0.00 0.00 85 1018.3
20190522043919 50 294 1.0 4.0 0.00 0.00 0.00 85 1018.3
20190522042919 50 282 1.0 4.0 0.00 0.00 0.00 85 1018.2
20190522041918 50 289 1.0 3.0 0.00 0.00 0.00 85 1018.1
20190522040919 50 290 1.0 3.0 0.00 0.00 0.00 86 1018.1
20190522035919 50 301 1.0 3.0 0.00 0.00 0.00 85 1018.1
20190522034918 50 310 1.0 4.0 0.00 0.00 0.00 85 1018.1
20190522033919 51 296 0.0 3.0 0.00 0.00 0.00 84 1018.0
20190522032919 51 304 2.0 6.0 0.00 0.00 0.00 83 1018.0
20190522031918 51 286 3.0 10.0 0.00 0.00 0.00 83 1018.0
20190522030919 51 288 2.0 7.0 0.00 0.00 0.00 84 1017.9
20190522025919 51 291 2.0 7.0 0.00 0.00 0.00 84 1017.8
20190522024919 51 290 2.0 7.0 0.00 0.00 0.00 84 1017.7
20190522023918 51 292 3.0 8.0 0.00 0.00 0.00 84 1017.7
20190522022919 51 288 3.0 10.0 0.00 0.00 0.00 84 1017.8
20190522021919 51 294 3.0 9.0 0.00 0.00 0.00 84 1017.7
20190522020918 51 295 3.0 8.0 0.00 0.00 0.00 84 1017.6
20190522015919 51 292 2.0 9.0 0.00 0.00 0.00 84 1017.5
20190522014919 51 288 3.0 7.0 0.00 0.00 0.00 85 1017.6
20190522013919 51 286 3.0 6.0 0.00 0.00 0.00 85 1017.4
20190522012919 51 294 3.0 7.0 0.00 0.00 0.00 85 1017.4
20190522011919 51 289 3.0 9.0 0.00 0.00 0.00 86 1017.3
20190522010919 51 293 3.0 7.0 0.00 0.00 0.00 86 1017.3
20190522005919 51 294 3.0 7.0 0.00 0.00 0.00 87 1017.3
20190522004919 51 288 3.0 6.0 0.00 0.00 0.00 87 1017.3
20190522003919 51 290 3.0 7.0 0.00 0.00 0.00 87 1017.2
20190522002919 51 291 3.0 7.0 0.00 0.00 0.00 87 1017.2
20190522001919 51 291 3.0 7.0 0.00 0.00 0.00 88 1017.2
20190522000919 51 289 3.0 5.0 0.00 0.00 0.00 89 1017.2
20190521235919 51 286 2.0 7.0 0.00 0.00 0.00 90 1017.2
20190521234919 51 289 3.0 8.0 0.00 0.00 0.00 89 1017.0
20190521233919 51 291 2.0 7.0 0.00 0.00 0.00 91 1017.0
20190521232919 51 286 2.0 5.0 0.00 0.00 0.00 92 1017.1
20190521231919 51 288 3.0 6.0 0.00 0.00 0.00 93 1017.1
20190521230919 51 286 3.0 6.0 0.00 0.00 0.00 94 1017.1
20190521225919 51 288 4.0 8.0 0.00 0.00 0.00 94 1017.0
20190521224919 51 289 4.0 8.0 0.00 0.00 0.00 95 1017.0
20190521223919 51 288 3.0 7.0 0.00 0.00 0.00 95 1016.9